Terminal Aerodrome Forecast
Issued by NWS

Home | Current Version | Previous Version | Text Only | Print | Product List | Glossary On
Versions: 1 2 3 4 5 6 7 8 9 10 11 12 13 14 15 16 17 18 19 20 21 22 23 24 25 26 27 28 29 30 31 32 33 34 35 36 37 38 39 40 41 42 43 44 45 46 47
000
FTUS44 KHGX 181749 AAA
TAFLBX
TAF AMD
KLBX 181749Z 1818/1918 VRB08KT P6SM VCSH FEW009 BKN015 BKN040
      TEMPO 1818/1821 1SM +TSRA BKN015CB
     FM182100 09007KT P6SM VCSH SCT035 BKN100 OVC250
     FM182300 09008KT P6SM FEW020 BKN090 OVC250
     FM190900 09009KT P6SM VCSH SCT010 BKN250
     FM191400 12006KT P6SM VCTS FEW007 SCT020CB BKN035=

USA.gov is the U.S. government's official web portal to all federal, state and local government web resources and services.